Wind_Speed
17 18 18 19 20 21 22 23 25 26 27 28 28 28 28 29 31 34 37 40 42 44 45 46 47 49 50 51 52 52 51 51 50 49 49 49 48 49 49 50 50 51 51 50 49 48 48 46 45 44 44 43 41 41 40 39 38 36 34 30 26 23 20 18 15 13 13 11 13 16 15 14 15 13 12 10 7 4 6 8 9 13 16 19 21 22 23 25
18 18 19 19 20 21 21 22 24 25 26 28 30 31 31 31 31 32 34 37 40 43 45 46 48 49 50 51 52 53 52 52 51 51 51 50 49 50 51 50 50 51 52 51 50 50 49 48 46 45 45 44 43 41 41 41 40 38 36 33 29 25 22 20 16 14 14 13 14 14 15 17 16 13 13 12 8 4 4 5 6 10 15 17 19 21 22 23
21 21 22 22 23 23 23 24 24 25 26 28 29 30 32 34 35 35 35 36 38 41 43 45 47 49 50 51 53 54 54 53 52 52 52 51 51 52 52 51 51 52 53 53 52 51 51 51 49 47 46 45 44 42 42 42 41 40 37 35 32 27 25 22 19 16 15 15 15 14 14 16 15 13 15 14 8 2 2 4 3 6 12 16 18 19 20 20
24 25 25 26 27 27 27 27 27 27 28 29 30 30 31 33 35 37 38 38 38 38 41 43 46 48 50 51 53 54 55 55 54 54 54 53 53 54 53 52 52 52 53 54 53 53 53 53 51 50 48 47 45 44 43 42 42 41 39 37 34 30 27 24 23 20 17 16 16 16 16 16 15 15 19 16 9 5 5 6 4 2 8 13 16 18 18 18
26 26 27 28 29 30 30 31 31 31 31 31 31 32 32 33 34 36 38 40 41 40 40 42 44 47 49 51 53 54 55 56 56 55 55 54 54 55 54 53 53 53 53 54 55 55 55 54 53 52 50 48 46 45 44 43 42 42 41 40 37 33 28 27 26 23 19 17 17 19 18 18 17 16 20 17 10 8 8 9 7 1 5 9 13 16 16 17
26 27 27 28 29 30 32 33 34 34 34 34 34 34 34 35 35 36 37 39 42 43 43 43 44 45 46 49 52 54 55 56 57 57 56 56 56 56 55 54 55 54 54 55 56 57 56 55 54 54 52 50 48 46 44 44 44 44 43 42 40 35 31 29 28 24 22 19 18 21 20 20 17 15 18 17 12 10 10 9 7 3 4 6 8 13 15 15
27 27 27 27 28 29 30 32 34 36 37 38 38 37 37 36 37 37 38 39 40 42 44 46 47 46 46 47 50 53 55 56 57 58 57 58 57 57 56 56 56 56 55 56 56 57 57 57 56 56 54 52 49 47 46 46 45 45 44 43 42 38 34 31 28 24 24 22 20 23 22 21 18 17 18 16 14 13 12 10 9 8 6 6 6 9 12 13
29 30 29 29 29 29 29 31 33 35 37 39 41 41 40 39 39 39 39 40 41 41 43 46 50 50 48 47 48 50 53 55 57 58 58 59 58 58 57 57 58 57 56 57 57 57 58 58 58 56 56 54 51 50 48 47 46 46 45 45 44 42 38 34 30 26 24 22 22 25 23 21 20 19 19 17 16 15 13 11 11 10 9 9 7 7 11 13
33 33 33 33 33 33 33 33 33 35 36 38 41 43 44 43 42 42 41 42 42 43 43 45 49 52 52 50 49 49 50 53 56 58 59 60 60 59 59 59 59 58 57 57 58 59 59 60 60 58 56 55 54 52 50 47 46 47 46 46 46 44 41 37 33 29 26 24 25 25 23 22 21 19 20 19 17 16 14 13 11 10 11 13 9 6 11 15
37 37 38 38 38 38 38 37 37 38 39 39 40 43 45 46 46 45 44 44 44 45 45 46 48 51 54 54 53 50 49 51 54 57 59 60 61 60 60 60 60 59 59 59 60 60 60 61 60 59 57 56 56 54 51 49 48 48 47 47 47 47 44 39 36 32 30 28 27 24 22 22 21 19 21 22 21 18 15 14 13 11 12 14 10 5 10 14
40 41 41 42 43 43 43 43 42 43 43 43 42 43 45 47 49 49 48 47 46 46 47 48 49 50 53 55 56 54 52 51 52 55 58 60 61 62 61 61 61 61 61 61 61 61 60 60 60 59 58 57 56 55 54 52 50 49 49 49 48 48 46 42 39 35 34 33 30 27 24 23 21 19 21 24 23 19 16 15 14 12 13 15 10 6 10 13
43 44 44 45 47 47 48 48 47 47 47 47 46 45 45 47 49 51 51 51 51 49 49 50 51 52 53 55 56 57 56 55 53 54 57 60 62 63 63 63 63 63 63 63 62 61 60 60 60 61 60 58 57 57 57 55 53 51 51 51 50 49 48 46 42 37 37 37 35 32 29 27 24 20 21 24 24 20 17 16 15 13 13 15 11 8 10 12
46 46 47 48 50 51 52 52 52 51 51 50 49 48 47 47 49 51 53 54 55 54 53 52 52 54 54 54 55 58 60 60 58 57 57 59 62 64 64 64 64 64 65 64 62 61 60 60 61 61 61 60 60 60 60 58 56 54 53 52 51 51 51 50 46 41 39 39 37 35 34 32 29 25 23 23 23 22 19 17 16 15 15 15 13 9 10 12
49 49 50 52 53 54 54 54 54 53 53 52 51 50 49 49 50 52 54 56 57 58 58 56 54 54 55 54 55 58 62 64 63 60 58 58 61 63 65 65 65 66 66 65 63 61 61 61 61 62 62 63 62 62 61 60 59 57 55 54 54 53 52 52 49 45 43 40 37 36 35 33 31 29 25 22 23 24 22 19 18 17 16 16 14 10 10 11
52 52 54 55 56 56 56 55 55 54 53 53 52 52 52 51 52 53 55 57 59 61 61 61 58 56 55 55 57 59 62 65 64 62 60 58 59 61 64 66 67 67 67 66 65 63 62 62 62 63 64 64 64 63 62 62 62 60 58 57 56 55 54 53 51 48 46 42 38 36 36 34 30 30 28 26 26 25 23 20 20 19 18 17 16 13 11 10
56 57 58 59 59 58 58 57 56 55 54 54 53 53 53 53 54 55 56 58 61 63 64 64 62 59 56 56 59 61 62 63 64 64 63 61 59 60 62 65 67 67 67 67 66 64 62 62 63 64 65 65 65 64 64 64 64 63 61 59 57 56 56 54 53 51 49 45 39 36 37 36 32 30 31 31 30 27 23 22 22 22 21 19 19 17 12 9
60 61 61 61 61 61 60 59 58 57 56 55 55 55 55 55 55 56 58 60 62 64 65 65 64 63 60 58 59 62 62 62 64 65 66 65 62 60 61 64 67 69 69 67 66 65 64 63 64 65 65 65 65 65 65 66 67 66 64 61 59 58 57 56 55 54 52 48 42 38 38 39 37 34 33 33 31 29 26 26 26 26 24 21 21 19 13 9
63 64 64 64 64 63 62 61 59 58 57 57 56 56 56 57 57 57 59 61 63 65 66 67 67 66 64 60 60 62 63 64 64 66 68 67 66 63 62 63 67 69 69 67 66 66 66 65 64 65 66 66 66 66 68 70 71 69 66 63 61 59 58 57 56 55 54 51 46 41 39 41 41 37 35 34 33 31 30 30 29 27 25 21 21 19 13 10
66 67 67 67 66 66 64 62 60 58 58 57 57 58 58 58 58 58 60 61 64 66 67 68 69 68 66 64 63 63 65 65 65 67 69 70 70 67 65 63 64 66 67 68 68 68 68 67 65 65 66 67 67 69 72 73 72 70 68 65 63 61 59 58 56 56 56 54 51 45 42 42 41 38 36 35 34 33 32 31 31 28 25 22 22 20 13 10
70 71 71 71 70 68 66 63 61 60 59 59 58 58 58 58 58 58 60 61 63 66 67 69 70 69 68 68 67 67 67 67 67 68 70 72 72 71 69 66 63 63 65 68 69 69 69 68 66 66 69 70 71 73 74 72 71 70 69 67 65 62 60 58 57 56 56 56 53 49 45 43 41 39 38 36 34 34 32 31 31 30 27 24 24 21 14 12
74 75 75 75 74 71 68 65 64 62 61 60 59 58 58 57 57 57 59 60 62 65 67 69 70 71 71 71 71 70 70 69 69 69 71 73 73 73 71 69 65 63 65 68 70 70 70 69 69 71 72 72 73 73 72 71 71 71 70 69 67 64 62 60 58 56 55 55 54 51 48 45 42 39 38 37 36 35 33 32 33 33 30 26 24 22 17 16
77 79 80 79 76 73 70 67 65 63 61 59 57 55 54 54 54 54 56 58 61 64 66 69 70 72 73 74 73 73 73 72 70 70 72 73 74 74 73 71 69 67 66 68 70 70 70 70 73 74 74 72 72 72 71 71 71 71 71 70 68 66 64 62 60 58 56 55 53 52 51 48 46 41 39 39 38 36 34 33 34 34 31 27 26 24 20 20
81 83 84 82 79 75 71 67 64 60 57 54 52 50 48 48 48 49 51 54 58 61 64 68 70 72 75 76 77 77 76 74 72 72 73 75 76 76 75 73 73 72 69 67 69 71 71 74 77 77 75 73 72 72 71 71 72 72 72 72 71 69 67 65 63 60 57 56 54 53 52 51 50 46 43 42 40 36 35 35 34 34 31 29 28 26 24 24
85 87 86 83 79 74 69 64 59 54 50 47 45 44 42 42 42 44 46 49 53 57 61 65 70 74 77 79 80 80 79 77 74 73 74 76 78 78 77 76 76 74 71 68 69 71 74 78 80 78 76 74 73 72 72 72 72 72 73 74 74 72 71 68 65 61 56 56 55 53 53 53 52 50 46 44 42 39 38 37 36 34 32 30 30 28 25 25
90 90 87 83 77 71 64 58 52 47 44 41 39 38 37 37 38 40 42 45 49 53 58 63 68 74 78 80 82 82 82 80 78 76 75 76 78 79 79 78 77 76 74 70 69 72 77 80 80 78 76 76 75 73 72 73 73 73 73 75 77 76 75 71 67 65 60 57 56 53 53 54 54 53 50 46 44 41 39 39 37 34 33 32 30 28 27 26
93 91 86 79 72 65 57 51 46 42 38 36 34 32 32 33 34 36 38 42 46 50 54 60 66 71 77 80 83 85 85 83 80 78 76 76 78 80 79 79 79 78 77 74 72 75 78 79 78 78 77 77 75 73 73 74 74 74 73 75 78 78 77 74 72 71 67 61 57 54 53 56 56 55 52 48 45 43 40 40 39 36 34 33 31 29 28 28
95 91 83 74 66 58 52 46 42 37 33 31 29 27 27 28 29 32 34 38 43 47 52 57 62 67 73 79 84 86 86 84 83 81 78 77 77 79 79 80 81 80 79 77 75 76 78 78 79 79 79 78 76 74 73 74 74 75 75 75 78 80 79 78 77 76 71 64 58 55 54 56 57 55 54 52 49 46 43 41 40 38 35 33 32 30 29 29
95 88 77 67 59 53 47 42 37 32 28 26 24 23 23 23 25 28 30 33 38 44 49 54 58 63 69 75 80 84 86 86 85 83 81 79 78 78 80 81 82 82 80 78 77 78 77 78 80 80 80 79 76 75 75 75 76 77 77 76 77 79 80 80 81 78 73 68 62 59 57 55 57 57 56 57 54 50 47 43 41 39 37 35 32 30 30 29
93 82 71 61 54 47 42 37 31 27 24 21 19 19 20 21 23 25 27 30 33 38 44 50 55 60 65 70 75 81 85 86 85 84 83 81 80 79 81 82 83 83 81 79 80 80 78 79 80 81 80 80 79 79 77 77 78 79 79 78 77 78 80 82 83 79 75 72 67 63 61 58 58 60 60 60 59 55 52 48 44 42 40 39 36 32 30 29
88 76 65 56 49 42 37 31 26 22 19 17 16 16 18 19 21 23 25 27 30 34 39 44 50 57 62 66 71 77 82 85 85 85 85 84 82 82 82 82 82 83 82 82 82 81 80 79 79 79 79 81 82 81 80 80 81 81 79 79 77 78 80 82 83 81 77 76 70 64 65 63 60 61 61 61 62 60 56 53 49 45 43 42 42 39 35 32
82 70 60 51 44 37 32 26 21 17 15 14 14 14 15 16 18 20 23 25 28 31 35 40 45 51 58 64 69 74 79 83 85 86 87 86 85 84 82 82 82 82 82 83 84 83 82 80 79 79 80 82 83 82 82 83 84 82 80 79 78 78 79 80 82 81 77 77 73 65 64 65 64 64 62 61 63 62 59 56 52 49 46 43 43 43 40 37
76 64 55 47 39 33 28 22 18 14 12 12 12 12 13 14 16 19 22 25 28 30 33 37 41 47 53 59 65 71 76 81 85 87 88 88 88 86 85 83 82 83 84 85 86 85 83 81 80 82 83 84 84 83 83 84 84 83 80 79 79 79 79 78 80 79 78 80 78 71 66 64 65 65 64 62 62 62 60 57 54 51 49 46 43 42 39 37
71 60 51 42 35 29 23 19 15 12 11 10 10 11 12 14 17 20 24 27 29 30 33 36 39 43 48 54 62 68 74 79 84 87 88 89 90 89 87 86 84 84 85 87 87 85 84 84 84 85 85 85 84 83 83 84 85 83 80 79 79 79 78 77 77 78 81 82 80 78 75 70 65 64 65 64 62 62 60 59 56 54 52 49 46 43 39 38
67 56 47 38 31 25 20 16 13 11 9 8 9 10 13 16 19 22 25 28 31 32 33 36 38 41 45 51 57 64 70 77 81 85 87 89 90 89 88 87 85 84 85 87 87 87 86 86 86 86 85 85 84 84 84 85 86 84 81 80 79 79 78 77 75 76 80 82 82 81 80 77 70 64 64 66 65 63 62 60 59 57 54 52 49 47 43 41
63 53 43 35 29 24 19 15 12 10 8 8 8 11 15 18 21 23 25 28 31 33 35 37 39 41 43 47 53 60 66 72 78 81 85 88 89 89 88 87 85 85 86 87 88 89 88 87 85 84 85 85 85 85 86 88 89 86 83 81 79 79 78 78 76 75 78 82 84 82 80 79 75 68 65 66 66 65 63 60 59 59 57 55 53 50 47 45
61 50 40 33 27 23 18 15 12 9 8 9 10 13 17 20 23 24 24 26 30 33 35 38 40 41 43 46 51 57 62 68 73 77 81 84 86 87 88 87 86 86 87 88 89 89 88 87 85 85 86 87 87 87 88 90 90 87 84 83 81 80 79 79 78 76 77 80 83 83 81 80 79 74 68 66 66 66 64 61 59 59 59 58 55 52 50 49
58 48 38 31 26 21 17 14 12 10 10 12 14 17 19 21 24 24 24 24 26 29 34 37 39 42 44 46 50 55 59 64 68 72 75 79 82 84 86 86 86 87 88 89 89 90 89 87 86 86 88 89 88 88 89 91 91 88 86 85 83 82 81 79 78 78 77 78 81 82 82 82 81 79 73 68 66 67 66 64 61 60 59 58 58 56 54 52
55 45 37 31 25 20 16 13 12 12 13 15 17 19 22 24 26 26 24 22 23 26 30 35 39 42 45 47 49 51 55 60 64 68 71 74 76 80 83 85 85 86 87 89 90 90 89 87 86 86 88 89 89 89 90 91 90 89 88 87 85 84 82 81 80 79 77 77 78 80 81 82 83 82 78 72 68 68 69 68 65 62 60 59 60 60 58 55
53 43 36 29 24 20 16 13 13 14 15 17 19 22 26 28 27 25 22 20 19 22 26 31 36 40 44 46 47 50 54 57 61 66 68 70 72 75 80 82 84 85 86 88 89 90 90 88 86 87 88 89 89 90 91 92 91 90 89 88 86 86 84 83 82 80 78 77 76 76 78 81 82 83 81 77 72 69 70 70 68 65 63 61 62 62 60 59
52 42 35 29 23 19 15 12 13 15 17 19 23 27 30 30 28 25 22 19 17 18 22 27 32 36 41 45 48 53 55 56 58 63 67 69 71 74 77 80 82 84 85 86 88 89 89 88 87 87 89 90 90 91 92 92 92 92 91 90 89 88 86 85 84 82 80 80 78 74 74 78 80 82 82 81 77 72 72 73 71 67 65 64 63 62 61 60
51 42 35 28 22 18 15 12 12 15 18 21 26 30 31 32 31 27 22 18 16 16 19 24 28 32 38 44 50 55 57 55 56 60 65 70 72 75 77 79 81 82 84 86 87 88 88 88 88 88 89 90 91 92 92 92 93 93 92 92 91 90 89 87 86 84 82 81 79 75 73 74 78 81 83 83 81 77 73 73 72 70 68 66 64 62 61 60
51 43 35 27 22 19 16 14 13 16 18 22 27 31 34 34 32 28 22 16 14 15 17 21 25 30 35 42 49 55 57 56 57 59 63 69 72 75 78 79 80 82 84 85 87 88 88 87 88 88 89 90 91 92 93 95 95 94 93 92 91 91 90 88 87 84 82 81 80 77 74 72 74 80 83 84 83 81 76 73 72 71 70 67 65 63 62 60
50 42 34 27 22 19 18 16 16 18 20 23 27 32 36 36 33 27 21 15 13 13 15 19 23 27 32 38 45 53 57 58 59 60 62 67 71 74 77 78 80 82 84 85 86 87 86 86 87 88 89 90 91 93 95 96 97 95 94 92 91 90 90 88 86 84 82 81 79 77 74 72 73 77 81 83 83 84 82 78 74 73 71 68 65 63 62 60
49 41 34 26 22 19 18 16 17 20 21 25 29 32 35 37 33 27 20 14 12 11 13 17 21 25 29 34 41 48 55 59 61 61 61 64 68 72 75 77 79 81 83 84 85 86 86 87 87 88 89 90 92 95 96 97 97 96 94 93 91 91 90 88 87 85 83 82 79 77 75 73 73 75 78 82 83 84 84 83 79 77 74 69 66 65 63 61
47 41 33 26 22 20 17 16 17 20 22 25 29 32 34 36 34 28 21 14 10 10 11 15 19 24 28 32 37 43 50 57 62 62 61 62 66 70 73 75 78 81 82 84 85 85 86 87 88 89 90 91 93 95 97 97 98 97 95 93 91 90 89 89 87 85 84 83 81 78 76 74 73 73 76 80 83 83 83 84 82 79 76 72 69 66 63 62
46 40 32 26 23 20 17 16 18 20 22 24 27 31 33 35 34 30 23 16 11 8 8 11 16 21 26 30 33 39 46 54 60 63 62 62 64 68 72 75 78 81 83 84 85 85 86 87 88 89 90 90 92 94 96 97 97 96 95 93 92 91 90 89 88 86 85 84 83 81 79 76 75 74 75 79 82 83 82 83 81 80 79 76 72 68 64 61
46 39 32 26 23 21 18 16 18 20 22 24 28 31 33 34 33 30 24 19 13 8 6 8 13 19 24 28 32 37 42 49 56 62 64 63 64 67 71 75 77 80 83 85 86 86 86 88 89 89 90 90 91 93 95 97 97 96 95 94 93 92 91 90 89 89 87 86 85 83 80 79 78 77 77 78 81 82 82 82 81 80 80 78 74 72 67 62
45 38 31 26 22 20 17 16 18 20 22 25 28 31 34 35 33 29 24 20 16 11 6 6 11 16 20 25 30 34 39 45 51 59 64 65 65 66 69 73 77 80 82 84 85 86 87 88 88 88 89 90 92 93 94 96 96 96 95 94 93 93 93 91 91 90 89 88 86 85 83 81 80 80 79 78 80 81 82 82 80 80 80 79 75 72 69 63
44 37 31 26 23 20 17 16 18 20 22 25 28 32 34 36 35 30 25 21 18 13 9 6 8 13 17 22 27 32 37 42 48 55 62 67 67 67 68 71 74 78 81 83 84 85 87 88 87 87 89 90 92 93 94 95 96 96 96 95 94 94 93 92 92 91 90 90 89 87 85 83 82 81 80 79 79 80 82 82 81 80 81 80 77 73 71 68
42 36 30 26 23 20 17 17 18 20 23 25 28 31 34 36 36 33 26 21 18 15 11 7 6 9 13 18 23 28 34 39 45 51 58 65 69 68 68 69 71 74 77 81 83 84 86 87 87 88 89 90 91 92 93 95 95 96 96 96 95 95 94 93 93 92 92 91 91 89 87 85 84 82 81 81 80 80 82 83 83 82 81 80 79 76 74 73
41 35 30 25 22 20 17 17 17 20 22 24 27 30 33 36 36 34 27 21 18 16 13 9 6 5 9 14 18 23 29 35 41 47 53 61 68 70 70 69 70 72 74 78 80 83 85 86 87 88 89 90 91 92 93 94 95 96 97 97 96 96 96 95 95 94 93 93 92 91 89 87 86 85 83 83 83 83 83 83 83 83 83 82 80 78 77 74
41 34 29 25 22 19 18 17 17 19 22 24 26 30 33 35 36 34 29 22 18 16 15 12 8 5 6 10 15 19 24 30 36 42 48 55 64 70 72 71 70 71 72 74 77 80 83 85 87 88 88 89 91 93 93 93 94 96 98 99 99 99 98 98 97 96 95 94 93 92 91 89 88 87 86 85 86 86 86 85 84 84 84 84 82 81 80 77
Wind_Direction
314 310 307 304 299 294 288 283 278 273 269 267 266 265 263 261 257 254 250 246 243 242 242 241 239 237 235 234 233 233 231 230 229 228 227 226 226 227 224 220 221 220 219 221 221 221 221 222 222 221 221 220 220 220 221 221 222 222 221 218 215 213 207 201 191 181 185 182 173 182 193 188 186 204 221 217 191 139 71 53 45 44 48 45 38 36 32 27
313 310 308 305 302 299 295 291 286 280 275 270 266 262 261 261 259 257 255 252 248 244 242 242 241 239 237 235 234 233 232 231 230 228 227 226 226 227 226 222 221 219 219 220 221 221 222 222 222 221 221 220 219 219 220 220 220 221 220 218 215 212 208 202 194 190 189 183 173 176 186 184 185 203 224 223 198 137 58 37 42 45 46 44 37 33 32 28
311 309 307 304 301 299 296 294 290 287 282 277 272 266 261 259 257 257 256 254 252 249 245 242 241 240 238 236 235 234 232 231 230 229 228 226 225 227 226 223 222 220 218 219 220 221 222 221 221 221 221 219 219 218 218 219 219 220 220 218 215 210 209 201 192 194 194 189 181 181 186 183 181 197 221 225 208 181 342 337 10 47 43 40 35 30 31 30
313 312 309 306 303 300 297 294 291 289 285 282 278 273 267 261 257 255 255 254 253 252 250 246 243 240 239 238 236 234 233 231 229 229 229 227 225 226 226 224 223 221 219 218 219 220 221 221 221 220 220 219 218 217 218 218 218 219 218 218 216 210 209 200 191 195 197 192 182 182 190 186 184 196 213 219 213 219 273 293 282 39 40 34 32 29 28 28
314 313 311 309 306 303 299 296 293 290 286 283 280 277 272 267 262 257 254 253 251 250 250 250 247 243 240 239 238 236 234 232 230 229 228 228 227 226 225 224 224 223 220 218 218 219 221 221 221 220 220 219 217 217 217 217 217 217 217 217 216 211 208 200 193 195 196 193 181 182 189 185 185 197 208 211 207 220 252 267 262 277 37 27 28 27 25 23
312 311 310 308 306 303 300 297 293 290 287 284 281 278 274 271 267 262 257 253 251 249 248 249 249 246 243 240 238 237 235 233 231 229 228 228 228 227 225 224 224 223 221 219 218 219 220 220 221 220 219 219 218 216 216 217 216 216 216 216 215 210 206 201 197 195 194 194 186 183 185 184 186 200 208 207 210 225 241 251 265 301 356 1 16 22 19 16
310 309 308 306 304 302 299 296 293 289 286 283 280 278 275 272 268 265 260 255 251 248 247 247 247 246 245 242 239 237 235 234 232 230 228 227 227 227 225 224 224 223 222 221 219 218 219 220 220 220 219 219 218 217 216 216 216 215 215 215 215 211 204 201 200 193 192 194 191 188 188 191 194 201 209 212 217 224 233 251 280 295 312 324 343 12 12 10
309 308 306 305 303 301 298 295 292 289 285 282 279 276 274 272 269 265 262 258 254 249 246 246 245 244 243 243 241 238 236 234 233 230 229 228 227 227 226 225 224 223 222 222 220 218 218 219 220 220 219 218 218 217 216 216 216 216 215 214 215 212 205 202 201 189 187 194 195 193 194 201 202 203 211 217 221 220 227 248 271 283 300 304 303 358 2 360
310 309 307 306 304 302 299 296 292 288 285 281 278 275 272 270 268 266 263 259 256 251 246 244 244 243 241 241 241 240 237 235 233 231 230 228 227 226 226 225 224 223 222 222 221 219 218 217 219 219 218 218 218 218 217 215 216 216 216 214 214 213 207 203 200 188 183 192 197 196 197 204 206 209 212 215 221 219 221 239 257 272 290 288 281 339 351 350
311 310 309 307 306 304 301 298 295 291 287 282 278 274 271 268 266 265 263 260 257 253 248 244 243 242 241 239 239 239 238 236 233 231 230 229 227 226 225 225 224 223 222 222 221 220 218 217 218 219 218 218 218 218 217 215 216 216 215 215 214 213 209 202 197 188 182 189 196 199 199 203 208 213 213 214 217 215 217 234 249 261 277 276 271 316 333 341
313 311 309 308 307 305 302 299 296 293 289 285 280 275 270 267 264 262 262 260 258 254 250 246 242 241 240 239 237 237 238 237 234 232 230 229 227 226 225 225 224 223 222 222 221 220 219 218 217 218 218 218 217 218 218 216 216 217 216 215 214 213 210 202 197 192 186 188 194 198 198 203 214 217 215 218 220 217 217 226 238 250 268 267 264 298 314 333
313 311 309 308 306 304 302 299 296 293 290 286 281 276 270 265 261 259 258 258 257 255 252 248 244 240 239 238 236 235 236 236 235 232 229 228 227 226 225 224 224 223 222 222 221 220 219 218 217 217 217 217 216 217 218 216 216 217 216 215 214 213 211 205 201 197 192 191 193 195 194 201 213 213 215 221 225 224 218 221 234 246 260 262 261 286 304 328
313 311 309 307 306 304 302 299 296 293 289 285 281 275 270 264 259 256 255 255 255 254 252 250 246 241 238 237 235 234 234 234 233 232 229 227 226 225 224 223 223 223 223 222 221 220 220 219 218 217 216 216 216 216 218 217 215 217 216 215 214 212 211 208 205 201 197 195 193 193 194 200 207 207 212 222 225 222 216 221 234 240 252 259 259 274 299 325
313 311 309 307 305 303 301 298 295 292 288 284 279 274 269 263 259 255 253 252 252 252 251 250 247 243 239 236 235 234 233 233 232 232 230 228 226 226 225 223 223 222 222 222 221 220 220 219 218 217 216 215 215 215 217 217 216 216 216 216 214 212 211 209 207 203 199 197 193 192 194 198 204 204 205 214 220 221 217 217 225 236 248 254 255 266 291 318
314 311 310 308 306 304 301 298 295 291 287 282 278 273 268 263 258 254 251 249 249 249 249 249 247 245 241 236 234 233 232 232 231 232 231 230 228 226 225 224 223 223 222 221 220 219 219 219 219 218 217 215 215 215 216 217 216 216 216 216 215 213 211 210 208 203 199 198 195 193 193 194 200 203 205 209 215 220 221 216 218 230 239 246 251 258 278 307
315 313 312 310 308 305 302 299 295 291 287 282 278 273 269 264 259 254 250 247 247 246 247 248 247 245 242 238 234 233 232 231 230 231 231 231 229 227 225 224 224 223 222 221 220 219 219 220 220 218 217 216 214 214 215 217 216 216 216 215 215 214 212 210 207 203 200 199 198 195 193 192 194 199 206 211 214 217 220 219 219 225 230 235 242 250 269 296
316 315 313 311 309 306 303 300 296 292 288 283 279 274 269 264 259 254 250 246 245 244 245 246 245 244 242 239 236 233 231 230 229 229 230 230 230 228 226 225 223 223 222 221 220 219 218 219 220 219 218 216 215 214 215 217 217 216 215 214 215 216 214 211 208 204 201 201 201 199 196 195 193 195 204 209 211 214 216 218 220 224 227 227 235 246 261 277
317 316 314 312 310 308 304 301 297 292 288 283 279 275 270 265 260 255 250 246 243 242 242 242 243 243 241 239 237 234 231 228 227 227 228 228 228 228 227 225 224 223 222 220 220 219 218 218 219 220 219 217 215 214 216 217 217 216 214 214 214 215 215 213 210 206 203 203 204 202 200 199 198 200 205 207 208 210 214 217 219 221 221 222 232 242 251 260
319 317 316 314 312 310 306 302 298 293 288 284 280 275 271 266 261 256 251 246 243 241 240 239 240 240 240 238 236 234 231 228 225 225 226 226 226 226 226 226 225 223 222 221 220 219 219 218 218 220 220 218 215 215 216 216 216 216 215 213 214 215 215 214 212 208 206 207 207 206 203 202 204 206 207 207 209 210 213 218 221 221 216 217 228 236 243 252
320 319 318 317 315 312 308 304 300 295 290 286 281 277 273 268 262 257 252 247 243 240 238 237 237 236 236 235 233 232 231 228 224 223 224 224 225 224 224 224 224 223 222 221 220 219 219 218 217 219 219 218 216 215 215 215 215 216 215 214 213 214 216 216 214 211 209 209 210 209 206 204 208 212 211 210 210 211 215 219 222 224 219 218 226 233 237 243
322 322 321 320 317 313 309 305 301 297 292 288 284 279 274 269 263 257 251 246 242 238 236 234 233 232 232 232 231 230 230 227 224 222 222 223 224 224 223 223 223 222 221 221 220 219 219 218 217 218 219 218 217 216 215 214 215 215 216 214 213 214 215 215 214 212 210 210 211 210 208 206 209 213 215 215 213 212 217 220 222 226 226 223 227 230 230 235
324 324 324 321 318 314 310 306 302 298 294 290 285 280 274 268 262 256 250 245 240 236 233 231 230 229 228 228 228 228 227 227 224 221 220 221 222 222 222 222 222 222 220 219 219 218 218 218 218 218 218 218 218 218 216 214 215 215 216 215 213 213 215 215 215 213 211 210 210 211 209 208 210 211 213 215 215 214 217 221 222 226 231 229 228 228 227 232
327 327 325 322 318 314 311 307 303 299 295 290 285 279 273 266 260 254 248 242 238 234 230 228 226 225 224 224 224 225 225 225 224 221 219 219 220 221 220 220 221 221 220 218 218 218 217 218 218 218 217 218 218 218 216 215 215 215 216 216 214 213 214 216 215 213 212 210 209 210 211 209 211 213 213 215 216 215 217 221 222 223 228 230 228 228 229 232
329 328 325 322 318 315 311 308 304 300 295 290 284 278 271 264 257 251 245 240 236 232 228 225 223 222 221 221 221 221 222 223 223 221 219 218 219 219 219 219 219 220 220 218 218 217 217 218 218 217 217 217 217 217 216 215 215 215 216 217 216 213 213 215 215 213 213 211 208 210 212 210 210 214 214 215 215 215 216 219 221 221 222 227 229 231 232 233
330 328 326 323 319 316 313 309 306 301 296 290 283 276 270 263 255 248 243 238 234 230 226 223 221 219 219 219 219 219 219 220 220 221 219 217 217 218 218 218 218 218 219 218 217 218 218 219 218 218 217 217 217 217 217 216 215 214 215 217 217 215 213 213 214 213 213 211 206 208 212 209 209 212 213 215 215 216 216 217 220 220 219 223 226 231 233 233
331 329 327 323 320 317 315 311 307 303 297 290 283 276 268 261 254 247 240 236 232 228 225 223 220 219 218 217 217 217 217 218 218 219 219 217 217 217 218 218 217 217 217 217 217 218 219 218 218 217 217 217 217 216 217 217 216 214 214 216 218 216 213 212 213 214 214 211 206 208 212 209 208 210 211 214 216 215 216 216 218 219 220 222 223 225 228 231
332 330 327 324 322 319 316 312 308 304 297 290 284 277 269 261 254 247 240 235 231 228 225 223 221 219 218 217 216 216 216 217 217 218 218 218 217 217 217 217 217 216 216 216 217 219 219 218 218 217 217 217 217 216 217 218 217 215 214 215 217 217 215 213 214 214 213 213 209 209 213 210 208 209 209 212 216 216 216 216 218 218 218 222 224 224 225 228
333 331 329 326 323 320 317 313 309 304 297 290 283 276 268 261 254 248 242 235 230 228 225 223 221 219 218 218 217 217 216 216 217 217 218 218 218 218 217 217 216 215 215 216 217 219 219 218 217 217 217 217 216 216 217 218 217 216 214 213 215 218 216 214 215 214 212 212 211 211 213 211 209 210 209 211 214 217 218 218 219 218 216 218 222 225 226 227
334 332 330 328 324 321 317 313 310 305 297 289 281 272 264 258 253 248 243 237 231 228 226 223 221 219 218 218 218 217 216 216 216 217 217 218 218 218 218 217 216 215 214 215 216 218 218 218 217 217 216 216 216 216 216 217 218 217 215 214 214 216 217 216 216 214 212 212 212 212 214 213 210 210 211 211 213 215 217 219 220 220 220 218 218 222 223 225
335 333 331 329 325 321 318 315 311 304 296 286 276 266 259 254 251 247 242 239 233 228 225 224 221 220 218 218 217 218 217 216 216 217 217 218 218 218 218 217 216 215 213 214 216 217 218 218 218 217 217 217 216 215 216 217 217 217 216 214 213 215 217 218 216 214 213 213 213 213 214 215 213 212 212 213 214 215 217 219 221 222 222 218 218 220 222 225
336 335 333 330 326 323 320 317 313 304 292 281 270 264 258 253 251 248 244 240 237 231 226 223 221 219 218 217 217 217 217 216 216 216 217 217 218 218 218 217 216 215 213 214 215 215 216 217 217 217 217 218 218 216 216 217 217 217 216 215 214 214 217 218 217 215 214 215 214 212 213 216 216 215 214 214 215 216 218 219 221 222 222 220 220 221 222 227
338 336 334 330 327 324 322 320 315 304 290 280 272 265 260 255 252 251 247 244 241 236 231 226 222 220 217 216 216 217 217 216 216 216 216 217 217 218 218 217 216 214 213 214 214 215 215 216 216 216 217 217 217 217 217 218 218 217 216 216 215 214 216 218 218 216 215 216 214 213 214 216 217 217 216 216 216 218 219 219 220 221 223 224 224 222 221 223
339 338 335 332 329 326 325 323 315 301 288 278 269 261 257 254 251 251 251 249 245 241 238 233 226 222 219 217 215 215 216 216 216 216 216 217 217 217 217 216 215 214 213 214 214 214 215 215 215 215 216 217 217 217 218 219 220 219 218 217 216 215 215 217 218 217 216 217 215 214 216 217 219 219 218 218 218 219 220 219 219 220 222 225 225 225 222 220
341 339 336 333 330 329 328 322 309 296 287 278 267 263 263 261 256 253 253 253 251 245 241 238 232 226 222 219 217 215 215 216 216 216 216 217 217 217 218 217 215 213 213 213 213 214 214 215 215 216 216 217 217 217 217 218 220 219 218 218 217 216 216 216 217 217 217 217 216 216 216 218 221 221 220 219 220 221 221 220 219 219 220 222 224 226 224 219
342 340 337 335 333 332 328 319 308 302 296 286 278 277 279 277 272 264 258 256 254 249 244 240 236 230 225 222 219 217 215 215 216 216 217 217 217 218 218 217 215 214 213 213 213 214 214 215 216 216 217 217 217 217 217 218 219 218 217 218 218 217 216 216 216 217 217 217 217 217 216 217 219 220 219 219 219 221 222 221 221 221 221 222 223 225 224 221
343 341 339 336 335 333 327 318 313 311 304 295 291 289 290 290 287 279 270 261 253 248 244 239 235 232 228 223 221 219 216 215 215 216 216 217 217 218 218 218 216 214 213 212 212 213 214 214 214 216 217 217 217 217 218 218 219 218 217 217 217 217 217 216 216 217 217 217 217 217 216 216 217 217 218 219 219 220 222 222 222 222 223 223 224 224 224 222
343 341 339 338 336 332 323 316 314 316 312 306 302 299 299 300 299 294 285 272 258 248 242 237 233 230 228 224 222 221 219 216 214 215 216 217 217 217 218 218 216 215 213 212 212 213 213 214 214 215 216 217 217 218 219 219 219 218 217 217 217 217 217 217 217 217 218 218 217 217 217 216 216 217 218 219 219 219 220 221 221 221 222 223 224 224 223 223
344 342 340 338 336 330 322 318 320 321 317 310 307 310 315 316 312 305 294 280 265 251 242 237 231 226 225 224 221 221 220 218 215 214 214 215 215 216 217 217 216 215 214 212 212 212 213 213 213 214 215 217 218 219 220 220 220 219 218 217 216 217 217 216 216 216 217 219 218 218 218 217 216 217 218 219 220 220 220 220 220 220 220 222 223 223 223 223
344 342 340 338 335 330 325 324 326 322 315 311 316 324 327 324 318 312 303 291 274 257 245 237 231 225 223 223 220 219 219 218 215 213 212 212 213 214 215 215 214 213 214 213 212 212 212 212 213 214 215 216 217 219 220 221 220 220 219 218 217 217 217 217 216 215 216 218 218 218 219 218 217 217 217 218 219 221 221 221 221 220 219 220 222 223 224 224
344 342 340 339 336 330 325 324 323 317 315 321 330 334 333 330 327 324 317 304 285 263 247 237 231 224 220 218 217 216 216 216 215 213 211 210 210 212 213 213 212 211 212 213 213 213 212 212 213 214 214 215 216 218 221 222 222 221 220 219 218 218 217 217 216 215 215 216 217 217 218 219 218 218 217 218 219 221 221 221 221 221 221 220 222 223 224 225
344 342 341 340 336 328 324 322 319 316 322 333 338 337 337 338 337 333 325 312 291 267 247 235 228 222 217 214 213 214 214 213 213 213 212 210 209 209 211 211 211 211 211 212 213 213 212 212 212 213 214 215 216 217 219 222 223 222 221 220 219 218 218 217 216 215 215 217 216 216 217 218 218 218 218 218 219 220 220 220 220 222 222 222 222 222 224 225
343 342 342 340 335 328 324 325 325 326 332 340 341 341 343 344 343 338 331 317 294 268 247 235 226 220 216 212 211 213 213 211 211 212 211 211 210 209 209 210 209 210 211 212 213 213 212 212 213 213 214 215 216 217 219 221 222 222 222 221 220 220 219 218 217 216 216 217 217 216 216 217 218 219 219 219 219 219 219 219 220 222 223 223 223 223 223 224
342 341 342 340 334 327 324 328 331 331 335 341 344 347 348 347 345 343 337 322 296 270 248 237 228 220 215 212 211 212 211 209 210 211 210 210 210 210 210 209 209 210 211 212 213 213 213 213 213 214 214 214 215 216 218 221 222 222 222 222 222 221 221 220 219 217 217 217 218 218 217 216 218 220 220 221 221 220 221 221 221 221 222 223 224 224 224 225
342 341 341 338 332 327 325 328 330 330 337 345 348 350 350 348 348 348 345 331 305 276 248 235 229 221 215 212 211 211 211 209 209 209 210 210 210 210 210 210 209 210 210 211 213 213 213 213 214 215 215 215 215 215 217 220 222 222 222 222 222 222 222 221 220 219 218 218 218 218 218 217 218 220 221 221 222 222 222 223 222 222 221 222 223 224 225 225
342 340 340 336 330 327 325 326 328 331 340 348 348 349 351 351 350 352 352 344 320 289 257 237 230 224 217 212 210 211 211 210 209 208 208 209 209 210 210 210 210 210 210 211 212 213 214 213 213 215 216 216 216 216 217 219 221 222 222 222 222 222 222 222 221 220 219 218 218 218 218 217 218 220 221 222 223 224 224 224 223 222 222 222 223 224 225 225
341 339 339 333 328 326 323 323 327 333 340 346 347 349 352 354 354 354 354 353 342 312 270 243 232 226 220 214 209 209 210 211 210 209 208 208 208 209 209 210 210 210 210 211 211 212 214 214 214 215 216 216 217 217 218 219 221 222 223 223 222 222 222 222 222 221 221 220 219 218 218 217 217 218 220 222 224 225 226 225 224 223 222 222 222 222 223 225
341 339 337 332 326 324 322 321 326 332 339 344 346 349 352 355 357 356 354 355 354 341 292 247 232 227 222 217 211 208 209 210 210 209 209 208 208 209 209 210 210 210 210 211 211 211 213 214 214 215 216 216 217 218 219 220 221 222 223 224 224 223 223 222 222 222 221 220 220 219 218 218 218 218 219 221 223 225 226 226 226 224 223 222 223 222 222 223
340 337 335 331 326 322 320 319 323 331 340 343 345 348 351 354 358 358 355 355 357 353 327 264 235 227 224 220 215 210 208 209 210 209 209 209 208 209 210 210 210 210 210 211 211 211 212 214 215 215 216 217 217 218 219 220 220 221 222 224 224 224 224 223 222 222 222 221 221 220 219 219 219 219 219 220 222 224 225 226 226 225 224 223 223 222 221 221
340 336 334 331 326 322 319 316 321 333 341 343 344 347 350 352 356 359 359 357 357 356 346 303 250 231 225 222 219 214 210 208 208 209 209 210 209 209 210 211 212 212 211 211 211 211 213 214 214 215 217 217 218 218 219 219 219 220 222 223 224 224 225 224 223 223 223 222 221 221 220 220 220 220 221 221 222 224 225 226 226 225 225 224 223 222 220 219
339 335 333 330 326 323 317 315 323 334 340 342 344 346 348 350 353 358 1 359 357 357 354 333 286 244 228 224 222 219 215 211 209 208 208 209 210 210 211 211 212 213 213 213 212 211 212 214 214 215 217 218 218 218 219 220 219 219 221 222 223 224 225 225 224 224 223 223 222 221 221 220 220 220 221 221 222 224 225 226 226 225 225 224 223 223 222 220
338 335 332 329 326 321 314 313 324 334 338 341 344 345 347 349 352 355 359 1 359 359 358 349 323 276 234 224 222 221 219 215 212 210 208 209 210 211 211 212 212 212 213 214 213 212 212 213 214 215 217 218 218 218 219 220 220 220 220 221 222 224 225 225 225 224 224 224 223 222 222 221 221 221 221 222 222 223 224 225 226 226 225 224 223 222 222 221
338 334 331 329 326 319 312 314 324 332 336 341 343 345 346 349 351 353 356 0 1 359 359 357 344 317 259 227 220 220 221 219 215 212 210 209 210 211 212 212 213 212 213 214 214 213 213 214 214 215 216 218 220 219 219 220 220 220 220 220 221 222 224 225 225 225 224 224 224 224 223 222 222 221 222 222 223 223 223 224 225 225 225 225 224 222 222 222
Height
10919 10918 10918 10917 10916 10916 10915 10915 10914 10914 10914 10914 10914 10914 10913 10914 10913 10913 10913 10913 10914 10915 10916 10917 10918 10920 10922 10923 10925 10927 10930 10933 10936 10939 10941 10943 10946 10948 10950 10953 10955 10959 10962 10964 10967 10969 10971 10973 10976 10980 10982 10985 10988 10991 10994 10997 10999 11001 11004 11006 11008 11010 11012 11014 11014 11015 11017 11018 11018 11020 11020 11020 11021 11021 11021 11021 11020 11020 11019 11018 11017 11016 11015 11013 11012 11011 11010 11010
10918 10917 10916 10915 10914 10913 10912 10911 10911 10910 10910 10909 10909 10909 10909 10909 10910 10909 10909 10909 10909 10910 10911 10912 10913 10915 10916 10918 10920 10922 10925 10929 10932 10935 10936 10939 10942 10942 10945 10949 10951 10955 10958 10960 10963 10966 10968 10970 10973 10976 10979 10982 10985 10989 10992 10994 10996 10999 11002 11004 11006 11009 11011 11013 11014 11014 11016 11017 11018 11019 11019 11020 11020 11021 11021 11021 11020 11020 11019 11019 11018 11017 11016 11014 11013 11013 11012 11011
10917 10915 10914 10913 10911 10910 10909 10908 10907 10907 10906 10905 10905 10904 10905 10905 10905 10905 10905 10905 10905 10905 10906 10907 10908 10909 10911 10913 10915 10917 10920 10923 10927 10929 10931 10935 10937 10937 10940 10944 10947 10950 10954 10956 10959 10962 10964 10966 10969 10972 10975 10979 10982 10986 10988 10990 10994 10997 11000 11002 11005 11007 11010 11011 11013 11014 11015 11016 11017 11018 11019 11019 11020 11021 11022 11021 11020 11020 11020 11020 11019 11018 11017 11016 11015 11014 11013 11013
10914 10913 10912 10910 10909 10908 10906 10905 10904 10903 10902 10902 10901 10900 10900 10899 10899 10900 10900 10900 10901 10901 10901 10901 10902 10904 10905 10907 10909 10911 10914 10918 10921 10924 10926 10930 10931 10932 10935 10940 10943 10945 10949 10952 10955 10957 10959 10962 10965 10968 10972 10975 10979 10982 10985 10988 10992 10995 10998 11000 11003 11006 11008 11010 11012 11013 11014 11015 11017 11018 11018 11019 11020 11021 11022 11021 11020 11020 11020 11020 11019 11019 11018 11017 11016 11016 11015 11014
10912 10911 10909 10907 10906 10904 10903 10902 10901 10900 10899 10898 10897 10896 10895 10895 10894 10894 10894 10894 10895 10896 10897 10896 10896 10898 10900 10902 10903 10906 10908 10912 10915 10918 10921 10924 10926 10928 10931 10935 10937 10941 10945 10948 10950 10953 10955 10958 10961 10965 10968 10972 10976 10979 10983 10986 10990 10993 10995 10997 11001 11004 11006 11008 11011 11012 11013 11014 11016 11017 11017 11019 11020 11021 11022 11021 11020 11020 11021 11021 11020 11019 11019 11019 11018 11017 11016 11016
10910 10908 10907 10905 10903 10901 10899 10898 10897 10895 10894 10893 10892 10891 10891 10890 10889 10889 10888 10888 10889 10891 10892 10892 10891 10892 10894 10895 10897 10900 10903 10906 10909 10912 10916 10919 10921 10923 10926 10930 10932 10935 10940 10943 10946 10948 10951 10954 10957 10960 10964 10968 10972 10976 10980 10983 10986 10989 10992 10995 10998 11001 11004 11007 11009 11011 11012 11013 11015 11016 11017 11018 11019 11021 11021 11020 11020 11020 11021 11021 11020 11020 11020 11020 11019 11019 11018 11018
10907 10905 10904 10902 10900 10898 10896 10894 10892 10890 10889 10888 10887 10886 10885 10885 10884 10883 10883 10882 10883 10884 10886 10886 10885 10887 10888 10889 10891 10893 10897 10900 10903 10907 10910 10913 10916 10918 10922 10925 10926 10930 10934 10937 10941 10944 10947 10950 10953 10956 10961 10965 10969 10973 10976 10979 10982 10986 10989 10992 10996 10999 11002 11005 11008 11010 11011 11012 11014 11014 11016 11017 11018 11020 11021 11020 11020 11020 11021 11021 11021 11021 11021 11021 11021 11020 11020 11019
10903 10902 10900 10898 10896 10894 10892 10890 10887 10885 10884 10882 10881 10880 10879 10879 10878 10877 10877 10876 10877 10878 10879 10879 10879 10880 10882 10883 10885 10887 10891 10894 10897 10901 10904 10907 10911 10913 10917 10919 10921 10925 10929 10932 10936 10940 10942 10945 10949 10953 10957 10962 10966 10969 10972 10976 10980 10984 10987 10990 10993 10997 11000 11003 11006 11008 11010 11011 11012 11013 11015 11016 11017 11019 11020 11020 11020 11020 11021 11022 11022 11022 11022 11022 11021 11021 11021 11021
10899 10897 10895 10893 10891 10889 10887 10885 10883 10880 10878 10876 10875 10873 10873 10872 10871 10871 10870 10870 10870 10871 10872 10871 10871 10873 10875 10877 10879 10881 10885 10887 10890 10894 10898 10901 10905 10908 10911 10913 10916 10920 10923 10926 10930 10933 10936 10940 10944 10949 10954 10958 10962 10964 10969 10974 10977 10980 10984 10987 10990 10993 10997 11001 11005 11007 11009 11010 11011 11012 11014 11015 11016 11017 11019 11020 11020 11020 11021 11022 11022 11022 11022 11022 11022 11022 11022 11022
10894 10891 10889 10887 10885 10883 10881 10879 10877 10874 10871 10870 10868 10867 10866 10865 10864 10864 10863 10863 10863 10863 10864 10864 10864 10865 10868 10870 10873 10876 10878 10880 10884 10888 10891 10894 10898 10901 10905 10907 10911 10915 10918 10920 10923 10926 10932 10937 10941 10946 10950 10953 10957 10962 10967 10971 10973 10977 10981 10983 10987 10990 10995 10999 11002 11005 11008 11010 11011 11011 11012 11013 11014 11015 11017 11019 11020 11020 11021 11022 11023 11023 11023 11023 11023 11023 11023 11023
10889 10886 10883 10881 10878 10876 10874 10872 10870 10867 10864 10862 10861 10859 10858 10857 10857 10856 10856 10856 10856 10856 10856 10856 10857 10858 10860 10863 10866 10870 10872 10873 10877 10880 10884 10887 10891 10895 10899 10901 10905 10909 10911 10913 10916 10922 10928 10934 10938 10942 10945 10949 10955 10959 10962 10966 10969 10973 10976 10979 10983 10988 10992 10996 11000 11003 11006 11009 11010 11010 11011 11012 11012 11014 11016 11018 11019 11020 11021 11022 11023 11023 11023 11023 11023 11023 11024 11024
10883 10880 10877 10874 10871 10869 10866 10864 10862 10860 10857 10854 10852 10851 10850 10849 10848 10848 10847 10847 10847 10848 10848 10848 10849 10851 10852 10855 10859 10863 10864 10866 10869 10872 10875 10879 10883 10887 10891 10895 10899 10902 10904 10907 10912 10918 10924 10929 10933 10936 10941 10946 10951 10954 10956 10961 10965 10968 10972 10976 10980 10985 10989 10993 10997 11001 11004 11006 11008 11009 11010 11010 11011 11012 11014 11016 11019 11021 11021 11022 11023 11023 11024 11024 11024 11024 11024 11025
10877 10874 10871 10867 10864 10861 10858 10855 10853 10850 10848 10845 10843 10842 10840 10839 10839 10839 10838 10838 10838 10839 10840 10840 10841 10842 10844 10848 10852 10855 10856 10858 10860 10863 10867 10871 10875 10879 10883 10888 10892 10895 10898 10903 10908 10914 10920 10924 10927 10932 10937 10940 10944 10948 10951 10956 10961 10963 10968 10972 10977 10981 10985 10990 10994 10998 11001 11003 11005 11008 11010 11011 11012 11013 11014 11016 11019 11021 11021 11022 11022 11023 11024 11025 11025 11025 11025 11025
10870 10867 10864 10860 10856 10852 10849 10846 10843 10840 10837 10835 10833 10832 10830 10829 10829 10829 10828 10829 10829 10829 10830 10831 10833 10834 10837 10842 10844 10845 10847 10849 10853 10857 10861 10865 10869 10873 10877 10882 10885 10888 10892 10898 10903 10909 10913 10917 10922 10927 10931 10934 10938 10943 10946 10951 10956 10959 10963 10967 10972 10977 10982 10986 10990 10994 10998 11001 11003 11006 11009 11011 11014 11016 11016 11017 11018 11019 11021 11022 11022 11023 11024 11025 11025 11025 11026 11026
10862 10859 10855 10851 10847 10843 10839 10835 10832 10829 10826 10824 10822 10820 10819 10819 10818 10818 10818 10818 10818 10818 10819 10821 10823 10826 10830 10834 10835 10835 10838 10841 10847 10852 10856 10860 10863 10867 10871 10875 10878 10882 10887 10893 10898 10903 10907 10912 10917 10921 10924 10929 10934 10939 10943 10946 10950 10955 10958 10962 10967 10972 10977 10981 10985 10991 10995 10998 11001 11004 11008 11011 11013 11016 11017 11017 11016 11018 11019 11021 11022 11023 11024 11025 11025 11025 11026 11027
10854 10850 10845 10841 10836 10832 10828 10824 10821 10817 10814 10812 10810 10808 10807 10807 10806 10807 10806 10806 10806 10807 10809 10811 10814 10818 10822 10825 10825 10826 10830 10835 10841 10846 10849 10853 10857 10861 10865 10868 10872 10877 10882 10887 10892 10898 10903 10907 10910 10914 10918 10924 10931 10936 10938 10941 10945 10950 10953 10959 10964 10968 10972 10976 10981 10987 10992 10995 10999 11002 11006 11009 11012 11014 11014 11014 11014 11017 11019 11020 11021 11022 11023 11024 11025 11025 11027 11027
10845 10840 10835 10830 10825 10821 10816 10812 10808 10805 10802 10799 10797 10796 10794 10793 10794 10794 10794 10794 10794 10795 10798 10801 10804 10808 10812 10816 10817 10818 10822 10828 10834 10838 10842 10846 10850 10855 10858 10861 10864 10869 10875 10882 10888 10893 10897 10900 10904 10908 10913 10920 10926 10931 10934 10936 10938 10942 10948 10954 10959 10963 10968 10973 10978 10983 10988 10992 10996 11000 11004 11006 11009 11009 11009 11010 11012 11015 11017 11018 11020 11021 11022 11023 11024 11025 11027 11027
10835 10830 10824 10819 10814 10809 10804 10799 10795 10792 10789 10786 10784 10782 10780 10780 10780 10780 10781 10781 10782 10784 10787 10790 10793 10796 10802 10807 10808 10809 10813 10819 10825 10830 10833 10838 10843 10847 10850 10854 10858 10863 10871 10878 10883 10887 10890 10894 10898 10903 10908 10915 10921 10926 10927 10926 10928 10935 10942 10950 10955 10959 10964 10969 10975 10981 10986 10990 10994 10998 11001 11004 11005 11006 11006 11008 11011 11014 11016 11016 11018 11020 11022 11023 11023 11025 11026 11027
10825 10819 10813 10807 10801 10796 10791 10786 10782 10778 10774 10771 10769 10767 10766 10765 10765 10766 10766 10767 10769 10772 10775 10778 10782 10786 10792 10796 10799 10800 10802 10808 10816 10821 10823 10827 10833 10838 10842 10847 10853 10859 10866 10872 10876 10880 10883 10888 10894 10899 10903 10908 10913 10915 10914 10917 10924 10932 10939 10946 10952 10956 10961 10966 10973 10978 10983 10987 10991 10995 10998 11001 11003 11003 11005 11008 11010 11012 11014 11015 11017 11018 11020 11022 11023 11025 11026 11026
10814 10807 10801 10794 10788 10782 10777 10772 10767 10763 10759 10756 10753 10751 10750 10749 10750 10750 10751 10753 10756 10758 10762 10766 10770 10775 10780 10784 10788 10789 10791 10797 10805 10810 10814 10819 10824 10829 10834 10840 10846 10853 10859 10863 10868 10873 10877 10883 10889 10891 10893 10897 10901 10903 10907 10916 10924 10928 10935 10942 10948 10953 10958 10963 10969 10974 10979 10984 10988 10992 10996 11000 11001 11002 11004 11007 11009 11011 11013 11015 11016 11017 11019 11020 11022 11024 11025 11026
10803 10795 10788 10781 10774 10767 10762 10757 10752 10748 10744 10740 10737 10735 10733 10732 10733 10734 10735 10738 10741 10744 10748 10753 10757 10762 10766 10771 10775 10778 10781 10786 10794 10801 10806 10810 10816 10822 10828 10834 10840 10845 10849 10854 10860 10866 10873 10878 10880 10879 10882 10888 10894 10898 10907 10915 10920 10924 10929 10936 10943 10949 10953 10958 10964 10970 10975 10980 10985 10990 10994 10998 11000 11001 11002 11005 11007 11009 11011 11013 11014 11016 11017 11020 11022 11023 11024 11025
10792 10783 10775 10767 10760 10753 10747 10742 10737 10732 10727 10724 10721 10719 10717 10717 10717 10718 10720 10723 10725 10729 10734 10739 10743 10748 10753 10758 10763 10768 10771 10775 10784 10791 10797 10802 10807 10812 10820 10827 10832 10835 10839 10846 10853 10860 10867 10870 10868 10869 10875 10883 10890 10896 10905 10911 10915 10920 10925 10931 10939 10945 10949 10954 10959 10964 10970 10976 10981 10986 10991 10995 10998 10999 11000 11002 11005 11007 11009 11011 11013 11014 11016 11019 11021 11022 11023 11024
10780 10771 10761 10753 10745 10738 10732 10727 10721 10716 10711 10708 10705 10704 10703 10702 10703 10704 10706 10708 10711 10715 10720 10725 10730 10735 10740 10745 10751 10756 10760 10766 10774 10781 10787 10792 10796 10802 10810 10818 10822 10826 10832 10840 10846 10853 10858 10857 10855 10861 10870 10878 10884 10891 10899 10905 10910 10916 10921 10925 10932 10939 10944 10947 10952 10959 10966 10972 10977 10982 10986 10990 10993 10995 10997 10999 11002 11005 11007 11007 11009 11012 11015 11017 11019 11019 11021 11022
10768 10758 10748 10739 10730 10723 10717 10712 10707 10702 10697 10694 10692 10691 10690 10690 10691 10692 10694 10696 10699 10703 10707 10712 10717 10721 10726 10732 10739 10745 10750 10757 10764 10770 10777 10783 10787 10794 10801 10807 10812 10819 10827 10834 10839 10844 10845 10842 10846 10856 10865 10871 10878 10885 10893 10899 10904 10910 10915 10918 10924 10931 10936 10940 10948 10957 10962 10966 10973 10978 10981 10985 10988 10990 10993 10996 10999 11000 11001 11003 11006 11009 11012 11014 11016 11017 11019 11020
10756 10746 10736 10725 10716 10709 10703 10698 10693 10689 10686 10683 10681 10680 10680 10680 10680 10682 10684 10685 10688 10692 10696 10700 10705 10709 10714 10721 10729 10734 10739 10746 10753 10760 10767 10773 10779 10785 10791 10798 10805 10812 10819 10826 10831 10834 10833 10835 10845 10855 10860 10865 10872 10880 10887 10892 10897 10904 10909 10912 10915 10922 10929 10936 10944 10949 10951 10956 10965 10971 10974 10979 10983 10985 10988 10992 10994 10995 10997 11000 11003 11007 11009 11011 11013 11016 11017 11018
10744 10733 10722 10712 10703 10696 10690 10686 10682 10679 10676 10673 10672 10672 10671 10671 10671 10673 10675 10677 10679 10683 10686 10690 10694 10699 10705 10711 10717 10721 10728 10736 10743 10750 10757 10764 10770 10776 10784 10790 10797 10803 10810 10816 10821 10822 10824 10832 10842 10849 10854 10859 10867 10875 10881 10885 10891 10898 10903 10905 10907 10913 10922 10931 10935 10938 10943 10951 10961 10964 10966 10973 10977 10979 10984 10988 10989 10991 10994 10997 11000 11004 11006 11008 11011 11014 11015 11017
10732 10720 10710 10700 10692 10685 10680 10676 10673 10670 10668 10665 10664 10664 10664 10664 10664 10665 10667 10669 10671 10674 10678 10682 10686 10691 10696 10701 10706 10712 10720 10728 10735 10741 10749 10756 10762 10769 10776 10781 10787 10794 10800 10808 10814 10815 10820 10828 10835 10841 10847 10853 10862 10870 10874 10878 10885 10891 10895 10898 10900 10905 10915 10923 10926 10930 10939 10950 10958 10960 10961 10968 10972 10976 10981 10983 10984 10987 10990 10994 10997 11001 11004 11006 11008 11011 11013 11014
10720 10708 10698 10689 10682 10676 10672 10668 10665 10663 10661 10659 10658 10658 10658 10658 10659 10660 10661 10663 10665 10667 10670 10674 10679 10684 10688 10693 10699 10705 10713 10720 10726 10734 10740 10747 10754 10761 10766 10771 10778 10786 10794 10803 10807 10807 10814 10821 10826 10833 10840 10848 10856 10861 10864 10871 10876 10880 10885 10891 10895 10899 10908 10915 10918 10926 10937 10946 10951 10954 10957 10963 10968 10972 10975 10977 10979 10983 10987 10991 10994 10998 11001 11004 11006 11008 11010 11012
10709 10697 10688 10681 10674 10669 10665 10662 10659 10657 10656 10655 10654 10653 10653 10653 10654 10655 10656 10658 10660 10662 10664 10668 10672 10677 10681 10687 10693 10697 10704 10712 10719 10726 10732 10739 10745 10750 10755 10762 10770 10778 10788 10795 10796 10800 10808 10813 10819 10826 10835 10842 10846 10850 10856 10862 10865 10870 10878 10885 10890 10895 10900 10905 10912 10922 10933 10938 10943 10948 10952 10957 10963 10966 10969 10972 10975 10979 10983 10987 10991 10994 10998 11001 11003 11006 11008 11010
10699 10688 10680 10673 10668 10663 10659 10657 10655 10653 10651 10651 10650 10650 10650 10651 10651 10652 10653 10654 10655 10657 10659 10661 10665 10670 10674 10680 10684 10688 10696 10704 10711 10717 10724 10730 10736 10740 10745 10754 10763 10772 10781 10784 10786 10794 10801 10806 10815 10824 10831 10833 10836 10842 10848 10851 10855 10862 10871 10879 10886 10891 10893 10897 10905 10917 10926 10932 10939 10943 10946 10952 10957 10959 10964 10968 10972 10975 10979 10983 10987 10991 10994 10997 11000 11003 11005 11007
10691 10681 10673 10667 10662 10658 10655 10653 10651 10650 10649 10648 10648 10648 10648 10648 10648 10648 10649 10650 10650 10652 10653 10655 10658 10662 10667 10672 10676 10680 10687 10694 10700 10706 10713 10720 10726 10731 10738 10747 10755 10764 10772 10775 10779 10786 10791 10800 10811 10818 10822 10824 10829 10837 10840 10842 10848 10856 10865 10873 10882 10886 10887 10891 10900 10913 10924 10928 10934 10938 10941 10946 10951 10954 10960 10965 10969 10973 10976 10980 10984 10987 10990 10994 10997 11000 11002 11004
10684 10675 10668 10662 10658 10654 10651 10649 10648 10647 10646 10646 10645 10645 10645 10646 10646 10645 10646 10646 10646 10648 10649 10651 10653 10656 10660 10664 10668 10672 10678 10683 10689 10696 10703 10709 10715 10721 10728 10737 10745 10755 10761 10764 10770 10778 10787 10796 10803 10806 10809 10814 10822 10830 10834 10838 10844 10851 10860 10869 10875 10880 10885 10890 10898 10911 10919 10920 10926 10934 10937 10940 10944 10950 10956 10961 10965 10969 10973 10977 10981 10984 10987 10990 10994 10997 11000 11002
10678 10670 10664 10659 10654 10651 10648 10647 10645 10645 10644 10644 10644 10644 10643 10643 10643 10643 10642 10642 10642 10644 10645 10646 10649 10651 10654 10656 10659 10663 10668 10673 10680 10687 10694 10699 10705 10711 10718 10726 10735 10745 10751 10756 10765 10774 10782 10788 10791 10796 10801 10808 10816 10824 10830 10835 10840 10847 10857 10864 10870 10877 10883 10888 10895 10905 10909 10912 10921 10927 10930 10934 10939 10945 10952 10956 10960 10964 10967 10972 10975 10979 10982 10986 10991 10995 10998 11000
10673 10666 10660 10655 10652 10648 10647 10645 10644 10644 10643 10643 10642 10642 10641 10641 10640 10640 10639 10638 10638 10639 10640 10641 10643 10645 10648 10650 10653 10656 10660 10665 10671 10679 10685 10690 10697 10705 10712 10719 10730 10739 10746 10753 10761 10768 10773 10779 10784 10791 10798 10804 10812 10817 10823 10828 10831 10840 10851 10857 10865 10873 10879 10885 10890 10896 10900 10907 10913 10919 10924 10930 10934 10940 10945 10950 10955 10959 10962 10966 10970 10973 10977 10981 10986 10990 10994 10997
10668 10662 10657 10652 10649 10646 10645 10644 10643 10642 10641 10641 10641 10640 10639 10637 10636 10636 10636 10634 10633 10633 10634 10635 10637 10639 10642 10645 10647 10649 10653 10658 10665 10672 10678 10684 10692 10700 10706 10715 10726 10734 10739 10747 10755 10760 10766 10774 10781 10789 10795 10800 10805 10809 10814 10818 10821 10831 10842 10850 10858 10867 10873 10879 10883 10887 10892 10898 10904 10912 10920 10924 10926 10932 10938 10944 10951 10955 10959 10964 10967 10970 10973 10977 10981 10985 10990 10992
10665 10660 10655 10650 10647 10645 10643 10642 10641 10640 10640 10639 10639 10638 10637 10634 10632 10630 10630 10629 10627 10626 10627 10629 10631 10633 10636 10639 10641 10643 10647 10652 10659 10667 10673 10680 10688 10696 10702 10710 10720 10726 10732 10740 10748 10753 10761 10769 10778 10785 10789 10792 10796 10801 10807 10809 10813 10825 10835 10843 10851 10858 10865 10872 10877 10881 10885 10890 10898 10906 10912 10915 10920 10928 10934 10940 10945 10950 10955 10959 10963 10967 10971 10974 10978 10981 10983 10984
10662 10657 10653 10649 10646 10644 10642 10641 10640 10639 10638 10637 10636 10635 10633 10630 10627 10625 10624 10622 10620 10620 10620 10621 10624 10626 10629 10631 10634 10637 10642 10649 10655 10662 10668 10674 10683 10692 10698 10705 10714 10721 10727 10734 10740 10747 10755 10764 10772 10777 10780 10784 10790 10796 10799 10801 10808 10819 10827 10834 10842 10849 10857 10866 10872 10877 10880 10885 10893 10900 10904 10909 10915 10923 10929 10935 10939 10943 10948 10951 10955 10961 10966 10970 10973 10974 10974 10977
10660 10655 10651 10647 10644 10643 10641 10639 10638 10637 10636 10635 10634 10631 10628 10625 10622 10619 10617 10615 10614 10614 10613 10614 10617 10619 10622 10625 10629 10634 10639 10645 10651 10656 10662 10670 10679 10686 10691 10699 10709 10716 10722 10728 10734 10741 10749 10758 10766 10770 10774 10779 10786 10790 10792 10796 10804 10813 10818 10826 10835 10841 10849 10857 10863 10870 10876 10881 10888 10893 10897 10903 10910 10917 10924 10930 10933 10937 10940 10943 10948 10953 10959 10963 10964 10965 10969 10974
10659 10654 10650 10646 10643 10641 10640 10638 10636 10635 10634 10633 10630 10627 10624 10621 10618 10614 10611 10609 10608 10607 10607 10608 10610 10613 10617 10621 10626 10630 10632 10638 10644 10650 10657 10665 10673 10679 10683 10691 10701 10709 10716 10723 10729 10735 10743 10752 10759 10763 10768 10774 10780 10783 10785 10790 10797 10804 10811 10820 10827 10833 10840 10847 10854 10864 10871 10875 10881 10887 10891 10897 10905 10912 10919 10924 10927 10931 10933 10937 10942 10947 10952 10954 10956 10960 10966 10970
10657 10653 10649 10645 10642 10641 10640 10638 10636 10635 10633 10630 10626 10623 10620 10617 10612 10609 10606 10603 10602 10602 10601 10602 10604 10608 10613 10616 10620 10622 10624 10631 10639 10645 10651 10658 10664 10671 10676 10684 10693 10701 10709 10716 10722 10729 10738 10746 10751 10756 10761 10766 10771 10775 10778 10783 10789 10795 10803 10811 10818 10824 10832 10839 10847 10857 10863 10867 10874 10880 10885 10892 10899 10907 10913 10916 10919 10923 10926 10931 10937 10941 10945 10947 10951 10957 10962 10965
10655 10652 10648 10644 10641 10640 10639 10637 10636 10634 10631 10627 10624 10621 10617 10612 10608 10604 10601 10599 10598 10597 10597 10597 10599 10603 10607 10610 10613 10614 10619 10627 10635 10640 10646 10650 10655 10661 10667 10676 10686 10695 10702 10708 10715 10722 10731 10739 10744 10748 10752 10758 10763 10768 10772 10776 10781 10787 10794 10801 10809 10817 10825 10832 10840 10850 10858 10863 10870 10876 10881 10886 10893 10899 10905 10908 10912 10916 10921 10927 10932 10936 10939 10942 10946 10952 10957 10961
10652 10649 10646 10642 10640 10638 10637 10635 10634 10632 10630 10626 10623 10618 10613 10609 10605 10601 10598 10596 10594 10593 10593 10593 10595 10597 10600 10604 10607 10609 10615 10623 10629 10634 10640 10645 10649 10654 10660 10669 10679 10688 10695 10702 10708 10715 10725 10732 10737 10740 10745 10751 10758 10763 10765 10765 10769 10777 10786 10795 10804 10812 10819 10827 10836 10846 10855 10861 10867 10873 10878 10883 10888 10892 10897 10901 10906 10910 10916 10921 10926 10930 10934 10937 10942 10948 10953 10958
10650 10647 10644 10641 10638 10636 10634 10633 10631 10630 10628 10625 10622 10617 10611 10607 10603 10600 10596 10594 10592 10591 10591 10591 10592 10594 10596 10599 10602 10605 10610 10617 10623 10627 10633 10639 10645 10650 10656 10665 10673 10681 10688 10695 10702 10710 10720 10726 10731 10734 10739 10745 10751 10755 10756 10755 10759 10769 10779 10789 10799 10807 10815 10824 10833 10843 10851 10857 10863 10870 10876 10881 10883 10886 10891 10895 10899 10904 10909 10914 10918 10923 10928 10934 10939 10944 10949 10953
10649 10645 10642 10639 10637 10635 10633 10631 10630 10628 10626 10623 10619 10616 10612 10607 10603 10599 10595 10593 10591 10589 10589 10589 10589 10591 10593 10595 10598 10602 10606 10612 10616 10622 10628 10635 10641 10647 10654 10661 10668 10675 10682 10688 10695 10704 10712 10718 10724 10728 10732 10738 10742 10744 10746 10747 10752 10762 10773 10783 10793 10801 10810 10819 10828 10837 10844 10850 10858 10866 10873 10878 10878 10880 10885 10888 10891 10895 10900 10905 10910 10916 10923 10929 10934 10939 10944 10949
10648 10644 10641 10638 10636 10634 10632 10631 10629 10627 10625 10622 10619 10616 10612 10607 10602 10598 10595 10592 10590 10588 10588 10588 10588 10589 10590 10592 10595 10599 10603 10607 10612 10618 10624 10631 10638 10644 10650 10655 10661 10668 10674 10681 10689 10697 10703 10710 10716 10720 10725 10730 10733 10736 10739 10742 10748 10757 10768 10778 10787 10795 10803 10812 10821 10830 10837 10845 10853 10860 10867 10872 10875 10877 10880 10881 10883 10887 10892 10897 10903 10911 10918 10923 10927 10933 10939 10944
10647 10643 10640 10637 10634 10633 10631 10630 10628 10626 10624 10622 10619 10616 10612 10608 10603 10598 10595 10592 10590 10588 10587 10587 10587 10587 10588 10590 10593 10596 10599 10603 10609 10615 10621 10626 10632 10638 10643 10648 10654 10660 10666 10672 10680 10688 10694 10702 10708 10712 10717 10723 10728 10732 10736 10740 10747 10755 10764 10772 10781 10789 10797 10805 10814 10822 10829 10838 10845 10851 10858 10866 10870 10871 10872 10874 10877 10880 10885 10890 10897 10905 10912 10916 10921 10926 10932 10937
10646 10642 10639 10636 10633 10632 10630 10628 10627 10625 10623 10621 10618 10615 10612 10608 10603 10599 10595 10592 10590 10588 10587 10586 10586 10586 10587 10588 10590 10593 10596 10600 10605 10611 10617 10622 10627 10632 10636 10641 10646 10652 10658 10664 10672 10680 10686 10692 10699 10705 10711 10717 10721 10727 10732 10737 10745 10752 10758 10766 10774 10782 10789 10797 10805 10812 10820 10829 10836 10843 10851 10857 10861 10862 10864 10867 10870 10874 10879 10884 10890 10898 10905 10910 10914 10919 10924 10929
10644 10640 10637 10635 10633 10631 10629 10627 10625 10624 10622 10619 10617 10614 10611 10607 10604 10600 10596 10592 10590 10588 10587 10585 10585 10585 10586 10587 10588 10590 10593 10597 10601 10607 10612 10617 10622 10626 10630 10634 10639 10644 10651 10657 10665 10673 10679 10684 10692 10699 10705 10709 10713 10719 10725 10732 10740 10748 10753 10759 10767 10773 10780 10790 10797 10803 10811 10819 10826 10834 10842 10847 10852 10856 10859 10862 10866 10869 10874 10878 10883 10891 10897 10902 10908 10913 10919 10922
10643 10639 10636 10633 10631 10630 10628 10626 10624 10623 10621 10618 10615 10612 10609 10606 10603 10600 10596 10593 10590 10588 10587 10585 10584 10584 10585 10586 10587 10588 10590 10593 10597 10602 10608 10613 10618 10622 10626 10630 10635 10640 10646 10652 10660 10667 10673 10678 10686 10692 10696 10700 10706 10712 10717 10724 10734 10742 10748 10753 10758 10764 10772 10782 10789 10795 10803 10810 10817 10825 10833 10839 10846 10851 10854 10859 10862 10865 10868 10871 10876 10883 10889 10895 10901 10906 10912 10916
10641 10637 10634 10632 10630 10628 10627 10625 10623 10621 10619 10617 10615 10611 10608 10605 10601 10598 10595 10593 10590 10588 10586 10585 10584 10583 10584 10584 10585 10587 10589 10591 10594 10597 10602 10608 10613 10618 10622 10626 10631 10638 10643 10648 10655 10661 10667 10673 10679 10684 10688 10692 10699 10706 10711 10718 10727 10735 10741 10747 10752 10756 10764 10772 10778 10786 10794 10801 10807 10816 10824 10831 10837 10842 10848 10853 10856 10858 10860 10863 10868 10875 10881 10886 10893 10899 10904 10908
10640 10636 10633 10631 10629 10627 10625 10623 10622 10620 10618 10616 10614 10611 10608 10605 10601 10598 10595 10593 10590 10588 10586 10585 10583 10583 10582 10583 10584 10585 10587 10589 10591 10595 10599 10604 10609 10613 10617 10621 10627 10633 10638 10644 10651 10656 10661 10666 10672 10677 10681 10685 10691 10698 10704 10711 10720 10728 10733 10739 10744 10749 10756 10762 10768 10776 10784 10791 10799 10807 10814 10821 10828 10834 10839 10843 10845 10848 10851 10854 10860 10866 10872 10877 10884 10890 10896 10901
10638 10635 10632 10630 10628 10626 10624 10623 10622 10620 10618 10615 10613 10610 10607 10604 10601 10597 10595 10592 10590 10588 10586 10585 10583 10582 10582 10582 10583 10584 10585 10587 10589 10592 10596 10600 10604 10608 10612 10617 10622 10627 10632 10638 10645 10651 10656 10660 10665 10670 10675 10679 10683 10689 10697 10705 10713 10719 10723 10729 10735 10740 10746 10753 10759 10767 10775 10783 10790 10797 10804 10811 10819 10825 10830 10833 10836 10837 10840 10846 10852 10857 10863 10869 10876 10883 10889 10895